Torna al catalogo

STARLINK-36229

AttivoComunicazioniSSO
NORAD 68114·PAYLOAD·🇺🇸 United States

Lanciato Mar 8, 2026 da Vandenberg Space Force Base

Loading…

Prossimi Passaggi (prossime 24 ore)

TLE

AggiornatoSource: CelesTrak SupGP

Epoca: Sep 15, 2026, 03:11 UTC

1 68114C 26044P   26258.13312500  .00010071  00000+0  31273-3 0  2589
2 68114  97.2851 217.1571 0001935  92.3554 320.0307 15.33424105    18

Traccia STARLINK-36229 in tempo reale con AllMySat

Download on the App Store